logo
App data

Supreme Ruler 2020 Gold

Supreme Ruler 2020 Gold contains Supreme Ruler 2020 and the expansion, Global Crisis: SUPREME RULER 2020 Overnight, the US dollar crashes AND the sound echoes across the globe. The economic crisis amplifies global instabilities and regional disputes, tearing the world asunder. Nations dissolve, economies collapse, and tensions escalate.
Store | Hub | SteamDB | Site
Developer: BattleGoat Studios Publisher: BattleGoat Studios
Genre: Strategy
Languages: English, French, German, Spanish - Spain
Tags: Strategy (34), Grand Strategy (10), Simulation (10), Politics (10)
Category: Single-player, Multi-player
Release date: Jul 9, 2009
Price: $9.99
Score rank: 51% Userscore: 81% Old userscore: 80% Metascore: 65%
Owners: 50,000 .. 100,000
Followers: 782
Peak concurrent players yesterday: 26
Playtime total: 08:38 (average) 12:50 (median)

Steam Spy is still in beta, so expect major bugs.

Owners data:

Access restricted.

This feature is only available to users with special access rights. Sorry.

If you want to proceed, you need to register or log in first and then back Steam Spy on Patreon. Look for Indie or Pro pledge.

Don't forget to use the same email as on Steam Spy!

Audience in 2 weeks:

Access restricted.

This feature is only available to users with special access rights. Sorry.

If you want to proceed, you need to register or log in first and then back Steam Spy on Patreon. Look for Indie or Pro pledge.

Don't forget to use the same email as on Steam Spy!

Peak daily concurrent players:

CCU data courtesy of SteamDB. Used with permission.

Hourly concurrent players:

YouTube:

The views data is based on top 50 videos uploaded last week. Actual number of views might be more than the number shown.

The displayed number of videos uploaded yesterday is limited to 50, so if there were more videos uploaded, the number will still show 50.

If the game has commonly used word as its name (like "FEAR" or "Volume") its number of Youtube views might be wrong.

Games similar to this one:

# Game Release date
Price
Score rank
(Userscore / Metascore)
Owners
Players
Playtime (Median)
1 Little Big Adventure 2 Oct 20, 2015 $3.9999% (98%)20,000 .. 50,0002.44%00:01 (00:00)
2 Dungeon Warfare Nov 4, 2015 $9.9997% (97%)50,000 .. 100,0000%00:00 (00:00)
3 Seven Kingdoms: Ancient Adversaries Mar 22, 2016 $2.39N/A (N/A)0 .. 20,0000%00:00 (00:00)
4 Militia Dec 2, 2015 $5.9995% (96%)0 .. 20,0000%00:00 (00:00)
5 Imperium Galactica Jan 19, 2017 $4.99N/A (N/A)0 .. 20,0000%00:00 (00:00)
6 Chicken Invaders 2 Mar 4, 2016 $3.9995% (96%)0 .. 20,0000%00:00 (00:00)
7 Defend The Highlands Nov 6, 2015 $9.99N/A (N/A)100,000 .. 200,0000%00:00 (00:00)
8 Voodoo Vince: Remastered Apr 18, 2017 $14.9995% (96%/63%)0 .. 20,0000%00:00 (00:00)
9 Hegemony Gold: Wars of Ancient Greece Mar 30, 2012 $14.9992% (95%)20,000 .. 50,0000%00:00 (00:00)
10 Supercharged Robot VULKAISER Jun 4, 2015 $4.9992% (95%)20,000 .. 50,0000%00:00 (00:00)
11 Flywrench Aug 24, 2015 $6.9992% (95%)0 .. 20,0000%00:00 (00:00)
12 Star Trek: Judgment Rites May 8, 2015 $9.99N/A (N/A)0 .. 20,0000%00:00 (00:00)
13 PixelJunk Shooter Nov 11, 2013 $8.9989% (94%/73%)100,000 .. 200,0000.35%00:25 (00:08)
14 Audio Arena Jul 25, 2016 $6.99N/A (N/A)0 .. 20,0000%00:00 (00:00)
15 Templar Battleforce Sep 21, 2015 $9.9989% (94%)20,000 .. 50,0000%00:00 (00:00)
16 Outcast 1.1 Dec 18, 2014 $5.9989% (94%)50,000 .. 100,0000%00:00 (00:00)
17 Neon Chrome Apr 28, 2016 $14.9989% (94%/74%)200,000 .. 500,0000%00:00 (00:00)
18 Gold Rush! Classic Jul 25, 2014 $2.99N/A (N/A)200,000 .. 500,0000.14%03:29 (01:09)
19 Adventure in the Tower of Flight Dec 23, 2015 $4.99N/A (N/A)0 .. 20,0000%00:00 (00:00)
20 Majesty Gold HD Sep 4, 2009 $9.9989% (94%)100,000 .. 200,0000%00:00 (00:00)
21 ESCHATOS Sep 18, 2015 $14.9989% (94%)0 .. 20,0000%00:00 (00:00)
22 Stick it to The Man! Dec 13, 2013 $7.9989% (94%/83%)20,000 .. 50,0000%00:00 (00:00)
23 Pharaoh Rebirth+ Mar 17, 2016 $9.9986% (93%)0 .. 20,0000%00:00 (00:00)
24 Handsome Mr. Frog Aug 8, 2016 $0.9986% (93%)0 .. 20,0000%00:00 (00:00)
25 Eufloria HD Oct 14, 2014 $14.9986% (93%)100,000 .. 200,0000%00:00 (00:00)
26 Anarcute Jul 12, 2016 $14.9986% (93%/79%)0 .. 20,0003.7%02:09 (00:43)
27 Kalimba Apr 22, 2015 $9.9986% (93%/81%)0 .. 20,0000%00:00 (00:00)
28 Major Mayhem Feb 24, 2014 $4.99N/A (N/A)20,000 .. 50,0000%00:00 (00:00)
29 Wars and Warriors: Joan of Arc Sep 3, 2015 $1.7486% (93%/60%)0 .. 20,0007.69%00:05 (00:01)
30 Kick Ass Commandos Nov 17, 2016 $9.9986% (93%)20,000 .. 50,0001.54%01:05 (00:21)
31 Run or Die Dec 11, 2014 $4.9986% (93%)0 .. 20,0002.17%00:21 (00:07)
32 Ittle Dew Jul 23, 2013 $9.9983% (92%/67%)100,000 .. 200,0000%00:00 (00:00)
33 Knightmare Tower Jun 16, 2014 $3.9983% (92%)0 .. 20,0000%00:00 (00:00)
34 Great Big War Game Aug 28, 2012 $6.99N/A (N/A)0 .. 20,0000%00:00 (00:00)
35 Miracle Fly Oct 26, 2015 $7.99N/A (N/A)20,000 .. 50,0000%00:00 (00:00)
36 Mad Bullets Jun 10, 2016 $2.9983% (92%)0 .. 20,0000%00:00 (00:00)
37 Death Ray Manta SE Sep 17, 2015 $1.9983% (92%)20,000 .. 50,0000%00:00 (00:00)
38 Warrior Kings: Battles May 6, 2014 $9.9983% (92%/64%)20,000 .. 50,0000%00:00 (00:00)
39 Super Trench Attack! Jul 24, 2014 $0.9983% (92%)50,000 .. 100,0000.54%00:01 (00:00)
40 The Juicer Sep 11, 2015 $0.9983% (92%)20,000 .. 50,0000%00:00 (00:00)
41 Ys VI: The Ark of Napishtim Apr 28, 2015 $19.9983% (92%/76%)50,000 .. 100,0000%00:00 (00:00)
42 Shmups Skill Test シューティング技能検定 Jun 9, 2016 $4.99N/A (N/A)0 .. 20,0000%00:00 (00:00)
43 Bleed Jul 3, 2013 $4.9983% (92%)100,000 .. 200,0000.59%00:01 (00:00)
44 Tallowmere Mar 3, 2015 $3.9983% (92%)20,000 .. 50,0004.08%00:19 (00:09)
45 Counter Spell Oct 5, 2015 $9.9983% (92%)0 .. 20,0000%00:00 (00:00)
46 Khet 2.0 Oct 1, 2014 $9.9983% (92%)50,000 .. 100,0000%00:00 (00:00)
47 Momodora III Jul 1, 2014 $1.9983% (92%)50,000 .. 100,0000%00:00 (00:00)
48 Angry Video Game Nerd II: ASSimilation Mar 29, 2016 $9.9979% (91%)20,000 .. 50,0000%00:00 (00:00)
49 Skulls of the Shogun Jul 29, 2013 $9.9979% (91%/72%)100,000 .. 200,0000%00:00 (00:00)
50 Clash of Puppets Dec 16, 2014 $4.99N/A (N/A)0 .. 20,0000%00:00 (00:00)
51 Super Cyborg Jul 8, 2015 $4.9979% (91%)20,000 .. 50,0000.91%00:02 (00:00)
52 Kohan II: Kings of War Aug 24, 2011 $9.9979% (91%/81%)20,000 .. 50,0000%00:00 (00:00)
53 Codename: Panzers, Phase Two Feb 18, 2016 $14.9979% (91%/80%)0 .. 20,0000%00:00 (00:00)
54 Dandy: Or a Brief Glimpse Into the Life of the Candy Alchemist Aug 4, 2015 $9.99N/A (N/A)0 .. 20,0000%00:00 (00:00)
55 Apocalypse: Party's Over May 30, 2016 N/A79% (91%)0 .. 20,0005.26%00:01 (00:00)
56 Blue Estate The Game Apr 8, 2015 $12.9979% (91%/59%)50,000 .. 100,0000%00:00 (00:00)
57 Valley Aug 24, 2016 $19.9979% (91%)200,000 .. 500,00011.44%01:11 (00:45)
58 Flashpoint Campaigns: Red Storm Player's Edition Oct 9, 2013 $49.9979% (91%)0 .. 20,0000%00:00 (00:00)
59 Near Death Aug 2, 2016 $14.9979% (91%/70%)20,000 .. 50,0000%00:00 (00:00)
60 Below Kryll Sep 7, 2015 $0.9979% (91%)0 .. 20,0000%00:00 (00:00)
61 Wild Guns Reloaded Jul 11, 2017 $14.9976% (90%)0 .. 20,0000%00:00 (00:00)
62 Ace of Seafood Apr 8, 2016 $11.9976% (90%)0 .. 20,0000%00:00 (00:00)
63 Silent Storm Gold Edition Oct 2, 2013 $9.9976% (90%/83%)200,000 .. 500,0001.72%00:24 (00:15)
64 Battle Academy 2: Eastern Front Sep 12, 2014 $39.9976% (90%/78%)0 .. 20,0000%00:00 (00:00)
65 Lethe - Episode One Aug 1, 2016 $14.9976% (90%)0 .. 20,0000%00:00 (00:00)
66 Sneaky Sneaky Nov 12, 2014 $4.9976% (90%/63%)0 .. 20,0000%00:00 (00:00)
67 Headlander Jul 25, 2016 $19.9976% (90%/74%)50,000 .. 100,0000%00:00 (00:00)
68 Zombo Buster Rising Oct 2, 2016 $1.9976% (90%)0 .. 20,0000%00:00 (00:00)
69 Planet of the Eyes Aug 24, 2015 $9.9976% (90%/66%)50,000 .. 100,0000%00:00 (00:00)
70 Superstatic Sep 15, 2015 $4.99N/A (N/A)0 .. 20,0000%00:00 (00:00)
71 Warhammer 40,000: Dawn of War – Winter Assault Aug 7, 2007 $12.9976% (90%)500,000 .. 1,000,0000.13%05:28 (01:49)
72 Swords and Soldiers HD Dec 2, 2010 $9.9976% (90%)100,000 .. 200,0000.14%00:34 (00:33)
73 Amaranthine Apr 6, 2016 $2.99N/A (N/A)0 .. 20,0000%00:00 (00:00)
74 MoonBase Commander Feb 6, 2014 $5.9976% (90%/77%)20,000 .. 50,0000%00:00 (00:00)
75 Death's Hangover Jan 20, 2017 $4.9973% (89%)50,000 .. 100,0000%00:00 (00:00)
76 CastleStorm Jul 29, 2013 $9.9973% (89%/73%)100,000 .. 200,0000.47%03:01 (01:00)
77 Earth Defense Force: Insect Armageddon Dec 14, 2011 $9.9973% (89%/69%)50,000 .. 100,0000%00:00 (00:00)
78 Explosionade Sep 23, 2015 $3.99N/A (N/A)0 .. 20,0000%00:00 (00:00)
79 System Crash Aug 1, 2016 $14.9973% (89%)0 .. 20,0000%00:00 (00:00)
80 Tcheco in the Castle of Lucio Jun 22, 2015 $0.9973% (89%)50,000 .. 100,0000.48%00:01 (00:00)
81 Reverse Crawl Sep 24, 2015 $5.9973% (89%)20,000 .. 50,0000%00:00 (00:00)
82 Battlepillars Gold Edition Apr 28, 2014 $4.9973% (89%)20,000 .. 50,0000%00:00 (00:00)
83 RIVE: Wreck, Hack, Die, Retry! Sep 13, 2016 $14.9973% (89%)200,000 .. 500,0000%00:00 (00:00)
84 Armed with Wings: Rearmed Jun 1, 2017 $9.9973% (89%)20,000 .. 50,0000%00:00 (00:00)
85 Darknet Jun 8, 2017 $14.9970% (88%)0 .. 20,0006.25%01:12 (00:24)
86 TRON 2.0 Oct 10, 2014 $9.9970% (88%/84%)50,000 .. 100,0004.08%02:00 (01:19)
87 Fort Meow Jun 24, 2015 $7.9970% (88%)0 .. 20,0000%00:00 (00:00)
88 Mr. Shifty Apr 13, 2017 $14.9970% (88%)50,000 .. 100,0000.49%01:38 (01:05)
89 Kohan: Ahriman's Gift Aug 24, 2011 $9.99N/A (N/A/79%)0 .. 20,0000%00:00 (00:00)
90 Weird Hero Nov 18, 2016 $1.3970% (88%)0 .. 20,0000%00:00 (00:00)
91 Viking Squad Oct 4, 2016 $14.9970% (88%)0 .. 20,0000%00:00 (00:00)
92 Anodyne Mar 22, 2013 $9.9970% (88%/75%)100,000 .. 200,0000%00:00 (00:00)
93 The Fall May 30, 2014 $9.9970% (88%/76%)200,000 .. 500,0000.26%01:13 (00:24)
94 Greed Corp Dec 10, 2010 $9.9970% (88%/76%)200,000 .. 500,0000%00:00 (00:00)
95 Earn to Die 2 May 5, 2016 $4.9970% (88%)20,000 .. 50,0000%00:00 (00:00)
96 Atom Zombie Smasher Mar 14, 2011 $9.9970% (88%/75%)200,000 .. 500,0000.26%02:45 (00:55)
97 Blacksea Odyssey Jun 1, 2016 $9.9967% (87%/74%)20,000 .. 50,0000%00:00 (00:00)
98 Spectromancer Feb 11, 2009 $9.9967% (87%)20,000 .. 50,0000%00:00 (00:00)
99 Graviteam Tactics: Mius-Front Mar 4, 2016 $34.9967% (87%)0 .. 20,0000%00:00 (00:00)
100 Civilization IV: Warlords Apr 6, 2007 $4.9967% (87%/84%)1,000,000 .. 2,000,0000%00:00 (00:00)
101 Command: Northern Inferno Oct 22, 2015 $19.99N/A (N/A)0 .. 20,0000%00:00 (00:00)
102 Rush for Berlin Gold Oct 29, 2009 $4.9967% (87%/76%)20,000 .. 50,0000%00:00 (00:00)
103 Time Rifters Oct 21, 2014 $9.9967% (87%)0 .. 20,0004.35%07:02 (02:20)
104 Sang-Froid - Tales of Werewolves Apr 5, 2013 Free67% (87%/79%)200,000 .. 500,0000.18%00:30 (00:10)
105 Lethal VR Nov 8, 2016 $14.9967% (87%/66%)0 .. 20,0000%00:00 (00:00)
106 The Haunted: Hells Reach Oct 24, 2011 $8.9967% (87%/51%)50,000 .. 100,0000%00:00 (00:00)
107 Shadow Blade: Reload Aug 10, 2015 $14.9967% (87%/70%)20,000 .. 50,0000%00:00 (00:00)
108 Avoid - Sensory Overload Apr 8, 2014 $4.9967% (87%)20,000 .. 50,0006.9%01:56 (01:17)
109 Spider: Rite of the Shrouded Moon Aug 6, 2015 $9.99N/A (N/A)20,000 .. 50,0000%00:00 (00:00)
110 Spooky Cats Jun 4, 2015 $2.9967% (87%)20,000 .. 50,0000%00:00 (00:00)
111 Syrian Warfare Feb 21, 2017 $13.9967% (87%)100,000 .. 200,0002.78%00:30 (00:10)
112 NOBUNAGA'S AMBITION: Souzou (Traditional Chinese version) Aug 2014 $24.9964% (86%)20,000 .. 50,0000%00:00 (00:00)
113 Bullet Sorrow VR Apr 17, 2017 $19.9964% (86%)0 .. 20,0000%00:00 (00:00)
114 N2O: Nitrous Oxide Jun 29, 2015 $4.99N/A (N/A)0 .. 20,0000%00:00 (00:00)
115 Slash or Die Jun 3, 2016 $2.9964% (86%)20,000 .. 50,0000%00:00 (00:00)
116 Super Chibi Knight Jun 24, 2015 $4.9964% (86%)20,000 .. 50,0000%00:00 (00:00)
117 Meltdown Jun 5, 2014 $6.9964% (86%)50,000 .. 100,0000.85%07:09 (02:23)
118 Star Ruler Sep 20, 2010 $9.9964% (86%)100,000 .. 200,0000%00:00 (00:00)
119 Dustoff Heli Rescue Mar 6, 2015 $3.9964% (86%)20,000 .. 50,0000%00:00 (00:00)
120 Steel Rain Dec 3, 2015 $9.99N/A (N/A)0 .. 20,0000%00:00 (00:00)
121 Age of Wonders Shadow Magic Oct 2010 $9.9964% (86%/82%)100,000 .. 200,0000%00:00 (00:00)
122 Western 1849 Reloaded Feb 10, 2017 $4.9964% (86%)0 .. 20,0000%00:00 (00:00)
123 Executive Assault Jul 17, 2015 $12.9964% (86%)50,000 .. 100,0002.04%13:31 (04:30)
124 Supreme Commander Sep 28, 2011 $12.9964% (86%/86%)500,000 .. 1,000,0000%00:00 (00:00)
125 The Way May 20, 2016 $14.9961% (85%/67%)50,000 .. 100,0000%00:00 (00:00)
126 Weapon of Choice Sep 23, 2015 $4.99N/A (N/A)0 .. 20,0000%00:00 (00:00)
127 GIBZ Apr 7, 2017 $7.9961% (85%)20,000 .. 50,0003.7%00:09 (00:03)
128 Gurgamoth Feb 16, 2016 $4.99N/A (N/A)20,000 .. 50,0000%00:00 (00:00)
129 ShootMania Storm Apr 10, 2013 $19.9961% (85%/76%)50,000 .. 100,0000%00:00 (00:00)
130 Ghost Master Dec 21, 2006 $0.9961% (85%/81%)100,000 .. 200,0000%00:00 (00:00)
131 Rooks Keep Dec 5, 2014 $7.99N/A (N/A)20,000 .. 50,0000%00:00 (00:00)
132 Interloper May 21, 2015 Free61% (85%/77%)50,000 .. 100,0000%00:00 (00:00)
133 Legend (1994) Nov 10, 2015 $4.99N/A (N/A)0 .. 20,0000%00:00 (00:00)
134 VelocityUltra Dec 12, 2013 $9.9961% (85%)50,000 .. 100,0000%00:00 (00:00)
135 ENSLAVED: Odyssey to the West Premium Edition Oct 24, 2013 $19.9961% (85%/70%)200,000 .. 500,0000%00:00 (00:00)
136 Last Knight: Rogue Rider Edition Oct 3, 2014 $7.9961% (85%)20,000 .. 50,0000%00:00 (00:00)
137 Super Furball Apr 21, 2015 $3.99N/A (N/A)0 .. 20,0000%00:00 (00:00)
138 Delta Force 2 Jun 18, 2009 $4.9959% (84%)50,000 .. 100,0000%00:00 (00:00)
139 The Men of Yoshiwara: Kikuya Oct 14, 2015 $29.9959% (84%)0 .. 20,0000%00:00 (00:00)
140 Fat Chicken Dec 4, 2014 $9.99N/A (N/A)0 .. 20,0000%00:00 (00:00)
141 CRYPTARK Jun 20, 2017 $14.9959% (84%/80%)50,000 .. 100,0001.3%00:02 (00:00)
142 Neon Shadow Aug 25, 2016 $4.99N/A (N/A)0 .. 20,0000%00:00 (00:00)
143 Foresight Nov 28, 2014 $4.99N/A (N/A)0 .. 20,0000%00:00 (00:00)
144 Act of War: Direct Action Mar 12, 2008 $2.9959% (84%/82%)20,000 .. 50,0000%00:00 (00:00)
145 Ballistic Tanks Sep 20, 2016 $4.9959% (84%)0 .. 20,0000%00:00 (00:00)
146 Decisive Campaigns: The Blitzkrieg from Warsaw to Paris Jan 22, 2015 $39.99N/A (N/A)0 .. 20,0000%00:00 (00:00)
147 Ace of Protectors Jun 27, 2016 $1.99N/A (N/A)20,000 .. 50,0000%00:00 (00:00)
148 PixelJunk Shooter Ultimate Oct 21, 2015 $9.9956% (83%)20,000 .. 50,0000%00:00 (00:00)
149 Orbital Gear Aug 7, 2014 $9.9956% (83%/59%)200,000 .. 500,0000%00:00 (00:00)
150 Galaxy Admirals Jan 17, 2017 $1.9956% (83%)50,000 .. 100,0000%00:00 (00:00)
151 Eador: Genesis Oct 14, 2013 $5.9956% (83%)50,000 .. 100,0000%00:00 (00:00)
152 Sudden Strike 2 Gold Aug 30, 2002 $5.9956% (83%)20,000 .. 50,0002.44%00:01 (00:00)
153 NOBUNAGA'S AMBITION: Sphere of Influence Sep 1, 2015 $59.9956% (83%/70%)20,000 .. 50,0005.56%00:35 (00:11)
154 Advanced Tactics Gold Aug 15, 2014 $29.9956% (83%)0 .. 20,0000%00:00 (00:00)
155 The Tiny Tale 2 Jan 30, 2015 $6.99N/A (N/A)0 .. 20,0000%00:00 (00:00)
156 Magnifico Dec 2, 2014 $4.99N/A (N/A)50,000 .. 100,0000%00:00 (00:00)
157 Square Brawl Oct 22, 2015 $4.9954% (82%)0 .. 20,0000%00:00 (00:00)
158 Crush Your Enemies Jul 13, 2016 $9.9954% (82%/63%)20,000 .. 50,0000%00:00 (00:00)
159 TY the Tasmanian Tiger 4 Sep 17, 2015 $5.9954% (82%)20,000 .. 50,0000%00:00 (00:00)
160 Battle Group 2 Jun 13, 2014 $7.9954% (82%)50,000 .. 100,0000%00:00 (00:00)
161 Bulletstorm: Full Clip Edition Apr 7, 2017 $39.9954% (82%/76%)50,000 .. 100,0000.83%00:38 (00:12)
162 Blade Arcus from Shining: Battle Arena Jul 28, 2016 $29.9951% (81%)0 .. 20,0008.33%00:37 (00:12)
163 Shadow Ops: Red Mercury Jul 2, 2014 $6.9951% (81%/61%)20,000 .. 50,0000%00:00 (00:00)
164 Perimeter Apr 3, 2014 $3.9951% (81%/77%)20,000 .. 50,0000%00:00 (00:00)
165 Fantasy Wars Aug 6, 2010 $4.9951% (81%/67%)50,000 .. 100,0000%00:00 (00:00)
166 Gun Metal Jan 16, 2014 $2.9951% (81%)200,000 .. 500,0000.31%03:18 (02:11)
167 Tiki Man Jun 5, 2015 $0.551% (81%)20,000 .. 50,0000%00:00 (00:00)
168 In Verbis Virtus Apr 3, 2015 $19.9951% (81%)50,000 .. 100,0000%00:00 (00:00)
169 Concealed Intent Aug 2, 2016 $14.99N/A (N/A)0 .. 20,0000%00:00 (00:00)
170 htoL#NiQ: The Firefly Diary / htoL#NiQ-ホタルノニッキ- May 18, 2016 $9.9951% (81%)20,000 .. 50,0003.7%07:21 (02:27)
171 Locoland May 28, 2015 $0.9951% (81%)0 .. 20,0000%00:00 (00:00)
172 Rack N Ruin Sep 1, 2015 $9.99N/A (N/A)0 .. 20,0000%00:00 (00:00)
173 rymdkapsel Jan 30, 2014 $7.9951% (81%/77%)0 .. 20,0000%00:00 (00:00)
174 Disciples Sacred Lands Gold Oct 7, 2014 $7.9951% (81%)50,000 .. 100,0000%00:00 (00:00)
175 Toadled Sep 22, 2016 $0.9951% (81%)50,000 .. 100,0000%00:00 (00:00)
176 Star Wolves 3: Civil War Mar 2, 2010 $4.9949% (80%)100,000 .. 200,0000%00:00 (00:00)
177 Trigger Runners Mar 3, 2016 $1.99N/A (N/A)0 .. 20,0000%00:00 (00:00)
178 Vietnam ‘65 Mar 5, 2015 $9.9949% (80%/81%)20,000 .. 50,0000%00:00 (00:00)
179 Interplanetary May 12, 2015 N/A49% (80%)100,000 .. 200,0001.19%02:15 (03:23)
180 Child Of Ault Jan 24, 2017 $9.99N/A (N/A)0 .. 20,0000%00:00 (00:00)
181 ROD: Revolt Of Defense Aug 12, 2016 $0.9949% (80%)20,000 .. 50,0000%00:00 (00:00)
182 Umihara Kawase Shun: Steam Edition Nov 24, 2015 $11.99N/A (N/A)0 .. 20,0000%00:00 (00:00)
183 Graviteam Tactics: Operation Star Feb 11, 2014 $29.9949% (80%)20,000 .. 50,0000%00:00 (00:00)
184 Bloodsports.TV Mar 30, 2015 $9.9949% (80%/69%)100,000 .. 200,0000.43%03:28 (01:09)
185 Envoy Mar 17, 2016 $4.99N/A (N/A)50,000 .. 100,0000%00:00 (00:00)
186 Defense Zone Jul 14, 2014 $3.99N/A (N/A)0 .. 20,0000%00:00 (00:00)
187 Conflict Desert Storm May 28, 2012 $6.9949% (80%/56%)50,000 .. 100,0001.43%00:07 (00:02)
188 Conquest of Elysium 3 Oct 24, 2012 $9.9949% (80%)20,000 .. 50,0000%00:00 (00:00)
189 Demons with Shotguns Apr 25, 2016 $9.99N/A (N/A)0 .. 20,0002.5%03:11 (01:03)
190 7,62 High Calibre Apr 30, 2014 $4.9949% (80%)50,000 .. 100,0000%00:00 (00:00)
191 Making History: The Calm & the Storm Mar 13, 2007 $4.9949% (80%/70%)50,000 .. 100,0001.03%00:16 (00:05)
192 Legends of Callasia Jun 10, 2016 Free49% (80%)50,000 .. 100,0000%00:00 (00:00)
193 Enemy Mind Jun 6, 2014 $9.9949% (80%)200,000 .. 500,0000%00:00 (00:00)
194 Hail to the King: Deathbat Oct 30, 2014 $5.9949% (80%)0 .. 20,0000%00:00 (00:00)
195 She Wants Me Dead May 13, 2016 $7.99N/A (N/A)0 .. 20,0000%00:00 (00:00)
196 Monday Night Combat Jan 24, 2011 $4.9949% (80%/82%)200,000 .. 500,0000%00:00 (00:00)
197 Junk Jack Nov 30, 2016 $14.9949% (80%)0 .. 20,0000%00:00 (00:00)
198 Zeno Clash 2 Apr 30, 2013 $14.9949% (80%)200,000 .. 500,0000%00:00 (00:00)
199 Fleet Command Oct 26, 2006 $9.9949% (80%)50,000 .. 100,0000%00:00 (00:00)
200 Bet On Soldier Dec 5, 2014 $7.9949% (80%)50,000 .. 100,0000%00:00 (00:00)
201 Run Rabbit Run Mar 31, 2016 $3.9949% (80%)0 .. 20,0000%00:00 (00:00)
202 Protoshift Jan 15, 2016 $0.99N/A (N/A)0 .. 20,0000%00:00 (00:00)
203 Advent Rising Sep 14, 2006 $9.9947% (79%/70%)50,000 .. 100,0000%00:00 (00:00)
204 Fate of the World Feb 28, 2011 $9.9947% (79%/70%)50,000 .. 100,0000%00:00 (00:00)
205 Age of Gladiators Feb 25, 2016 $9.9947% (79%)50,000 .. 100,0000%00:00 (00:00)
206 Fortified Feb 3, 2016 $14.9947% (79%)500,000 .. 1,000,0000.66%02:06 (03:05)
207 Demolition Inc. Sep 19, 2011 $5.9947% (79%)50,000 .. 100,0000%00:00 (00:00)
208 David. Feb 16, 2015 $1.9947% (79%)50,000 .. 100,0000.68%03:01 (01:00)
209 TRON RUN/r Feb 16, 2016 $19.9947% (79%)0 .. 20,0000%00:00 (00:00)
210 TASTEE: Lethal Tactics May 10, 2016 $14.9947% (79%)20,000 .. 50,0001.56%00:28 (00:09)
211 Nuclear Dawn Sep 26, 2011 $9.9947% (79%/71%)200,000 .. 500,0000.44%09:03 (06:01)
212 PAC-MAN and the Ghostly Adventures Oct 29, 2013 $19.9947% (79%)0 .. 20,0000%00:00 (00:00)
213 Pharaonic Apr 28, 2016 $14.9947% (79%)20,000 .. 50,0000%00:00 (00:00)
214 Mold on Pizza Sep 25, 2015 $2.9947% (79%)0 .. 20,0000%00:00 (00:00)
215 Caster Mar 19, 2009 $1.9947% (79%)200,000 .. 500,0000%00:00 (00:00)
216 Starscape Nov 3, 2008 $7.9947% (79%)20,000 .. 50,0000%00:00 (00:00)
217 Ironcast Mar 26, 2015 $14.9947% (79%/75%)20,000 .. 50,0007.69%01:52 (01:14)
218 The Legend of Dark Witch Dec 1, 2015 $4.9947% (79%)20,000 .. 50,0000%00:00 (00:00)
219 Zombie Killtime Aug 4, 2015 $1.99N/A (N/A)0 .. 20,0000%00:00 (00:00)
220 Cultures - 8th Wonder of the World Mar 26, 2015 $4.9945% (78%)50,000 .. 100,0000.64%00:04 (00:01)
221 Anomaly Warzone Earth Mobile Campaign Nov 6, 2013 $4.9945% (78%)100,000 .. 200,0000.43%01:32 (00:30)
222 Blue Effect VR Feb 8, 2017 $14.9945% (78%)0 .. 20,0000%00:00 (00:00)
223 Dominions 3: The Awakening Sep 10, 2013 $19.9945% (78%/82%)0 .. 20,0000%00:00 (00:00)
224 Battle Mages: Sign of Darkness Jul 24, 2014 $0.9945% (78%)20,000 .. 50,0000%00:00 (00:00)
225 Star Realms Mar 8, 2016 Free45% (78%)100,000 .. 200,0000.92%01:46 (00:35)
226 Tank Destroyer Mar 9, 2017 $0.545% (78%)20,000 .. 50,0000%00:00 (00:00)
227 Heroes of Might & Magic V: Hammers of Fate Oct 10, 2008 $9.9945% (78%/66%)100,000 .. 200,0000.93%00:04 (00:02)
228 Gatling Gears Aug 30, 2011 $9.9945% (78%)20,000 .. 50,0000%00:00 (00:00)
229 King of Dragon Pass Jul 28, 2015 $11.9945% (78%)20,000 .. 50,0000%00:00 (00:00)
230 Strike Suit Zero: Director's Cut Apr 8, 2014 $19.9945% (78%)20,000 .. 50,0000%00:00 (00:00)
231 Defense Zone 3 Ultra HD Dec 14, 2016 $3.9945% (78%)20,000 .. 50,0000%00:00 (00:00)
232 Deadly 30 Jan 8, 2014 $4.9945% (78%)100,000 .. 200,0000.38%02:05 (00:41)
233 Dead Rising 2: Off the Record Oct 11, 2011 $19.9945% (78%/66%)200,000 .. 500,0000.57%01:20 (00:39)
234 Anomaly 2 May 15, 2013 $14.9945% (78%/77%)200,000 .. 500,0000.19%01:32 (00:30)
235 Mysterium: A Psychic Clue Game Jan 12, 2017 $6.9945% (78%)50,000 .. 100,0000%00:00 (00:00)
236 Zombie Party Jun 10, 2016 $9.9945% (78%)100,000 .. 200,0000%00:00 (00:00)
237 BloodRayne Sep 14, 2006 $9.9943% (77%/65%)50,000 .. 100,0000.81%02:58 (00:59)
238 Warhammer 40,000: Armageddon Nov 26, 2014 $39.9943% (77%/68%)20,000 .. 50,0005.56%00:16 (00:05)
239 Warlords Battlecry III Jan 22, 2016 $9.9943% (77%/73%)20,000 .. 50,00010%00:02 (00:00)
240 The Political Machine 2016 Feb 4, 2016 $4.9943% (77%)50,000 .. 100,0000%00:00 (00:00)
241 Aeon Command Jul 3, 2014 $2.9943% (77%)20,000 .. 50,0000%00:00 (00:00)
242 Ninjahtic Jul 6, 2015 $1.9943% (77%)0 .. 20,0000%00:00 (00:00)
243 Jim Power -The Lost Dimension Sep 30, 2015 $4.99N/A (N/A)0 .. 20,0000%00:00 (00:00)
244 A Blind Legend Apr 7, 2016 $6.9943% (77%)0 .. 20,0000%00:00 (00:00)
245 Sky Gamblers: Storm Raiders Jan 7, 2015 $9.9943% (77%)0 .. 20,0000%00:00 (00:00)
246 Curse of the Crescent Isle DX Aug 21, 2015 $0.9943% (77%)0 .. 20,0000%00:00 (00:00)
247 Vector Strain Dec 9, 2015 $4.99N/A (N/A)20,000 .. 50,0000%00:00 (00:00)
248 Age of Wonders Oct 2010 $5.9943% (77%)100,000 .. 200,0000%00:00 (00:00)
249 Auralux: Constellations Jun 1, 2016 $9.99N/A (N/A)0 .. 20,0000%00:00 (00:00)
250 McDROID Sep 5, 2014 $9.9943% (77%)0 .. 20,0000%00:00 (00:00)
251 Dangerous Waters Feb 7, 2006 $14.9943% (77%/82%)50,000 .. 100,0000%00:00 (00:00)
252 Starchaser: Priestess of the Night Sky Jul 24, 2015 $9.99N/A (N/A)0 .. 20,0000%00:00 (00:00)
253 Deadlings: Rotten Edition Nov 11, 2014 $3.9943% (77%)50,000 .. 100,0000%00:00 (00:00)
254 Civil War II Jul 3, 2014 $39.9941% (76%)0 .. 20,0000%00:00 (00:00)
255 Cashtronauts Aug 31, 2016 $2.99N/A (N/A)0 .. 20,0003.13%04:03 (01:21)
256 Chaser Jul 16, 2010 $4.9941% (76%/66%)100,000 .. 200,0000%00:00 (00:00)
257 Making History II: The War of the World Aug 27, 2010 $14.9941% (76%/38%)20,000 .. 50,0000%00:00 (00:00)
258 Z Jul 4, 2014 $6.9941% (76%)100,000 .. 200,0000.29%15:34 (05:11)
259 Velocity 2X Aug 19, 2015 $19.99N/A (N/A)50,000 .. 100,0000%00:00 (00:00)
260 Painkiller Hell & Damnation Oct 31, 2012 $19.9941% (76%/64%)500,000 .. 1,000,0000.34%01:03 (00:42)
261 Arcane Sorcery Sep 15, 2015 $4.99N/A (N/A)0 .. 20,0000%00:00 (00:00)
262 Rocketbirds 2 Evolution Jan 26, 2017 $9.9941% (76%)20,000 .. 50,0000%00:00 (00:00)
263 Battlezone Gold Edition May 11, 2017 $34.9941% (76%)0 .. 20,0000%00:00 (00:00)
264 Olympia Rising Jul 23, 2015 $4.9941% (76%)20,000 .. 50,0000%00:00 (00:00)
265 Corgi Warlock Dec 3, 2015 $1.9941% (76%)20,000 .. 50,0000%00:00 (00:00)
266 Riddled Corpses Jun 2, 2015 $7.9939% (75%)20,000 .. 50,0000%00:00 (00:00)
267 Onechanbara Z2: Chaos Jun 2, 2016 $39.9939% (75%)0 .. 20,0000%00:00 (00:00)
268 Victory At Sea Aug 8, 2014 $7.4939% (75%)20,000 .. 50,0000%00:00 (00:00)
269 Heaven Forest NIGHTS Mar 13, 2017 $0.9939% (75%)100,000 .. 200,0000.23%02:28 (00:49)
270 Fist Puncher Jun 21, 2013 $9.9939% (75%/73%)20,000 .. 50,0001.45%00:35 (00:11)
271 Death by Game Show Jan 22, 2016 $9.99N/A (N/A)20,000 .. 50,0001.45%301:14 (100:24)
272 CivCity: Rome Apr 6, 2007 $9.9939% (75%/67%)50,000 .. 100,0000%00:00 (00:00)
273 Hunting Unlimited 2008 Jan 29, 2008 $9.99N/A (N/A)20,000 .. 50,0000%00:00 (00:00)
274 Bubsy Two-Fur Dec 17, 2015 $4.9939% (75%)20,000 .. 50,0003.85%00:03 (00:01)
275 Cuban Missile Crisis Mar 25, 2015 $4.9939% (75%)20,000 .. 50,0000%00:00 (00:00)
276 Livelock Aug 30, 2016 $9.9939% (75%/73%)20,000 .. 50,0000%00:00 (00:00)
277 Platformines Mar 28, 2014 $9.9939% (75%/67%)100,000 .. 200,0000.58%01:01 (00:20)
278 Rocket Knight May 11, 2010 $14.9939% (75%/63%)0 .. 20,0000%00:00 (00:00)
279 After The End: The Harvest Jun 2, 2017 $4.9939% (75%)20,000 .. 50,0000%00:00 (00:00)
280 Perimeter: Emperor's Testament May 22, 2014 $3.99N/A (N/A/72%)20,000 .. 50,0000%00:00 (00:00)
281 Star Hammer: The Vanguard Prophecy Jun 4, 2015 $19.9939% (75%/69%)0 .. 20,00011.11%00:07 (00:02)
282 Vampire of the Sands Jul 17, 2015 $4.9939% (75%)20,000 .. 50,0000%00:00 (00:00)
283 Master Reboot Oct 29, 2013 $14.9937% (74%/59%)50,000 .. 100,0000%00:00 (00:00)
284 Monster Monpiece Mar 14, 2017 $19.9937% (74%)0 .. 20,0001.75%40:59 (13:39)
285 Albino Lullaby: Episode 1 Sep 14, 2015 $9.9937% (74%)20,000 .. 50,0000%00:00 (00:00)
286 Making History: The Great War Jan 29, 2015 $29.9937% (74%)20,000 .. 50,0000%00:00 (00:00)
287 TableTop Soccer Apr 22, 2016 $0.9937% (74%)0 .. 20,0000%00:00 (00:00)
288 Extravaganza Rising Jul 21, 2016 N/AN/A (N/A)20,000 .. 50,0000%00:00 (00:00)
289 BossConstructor Oct 24, 2016 $14.9937% (74%)0 .. 20,0000%00:00 (00:00)
290 A.R.E.S. Extinction Agenda EX Oct 3, 2014 $9.9937% (74%)0 .. 20,0000%00:00 (00:00)
291 Spirits of Xanadu Mar 26, 2015 $0.9937% (74%)20,000 .. 50,0000%00:00 (00:00)
292 The Aquatic Adventure of the Last Human Jan 19, 2016 $9.9937% (74%/76%)0 .. 20,0000%00:00 (00:00)
293 Smell Of Death Jul 4, 2016 $9.99N/A (N/A)0 .. 20,0000%00:00 (00:00)
294 Commander: The Great War Jul 25, 2014 $29.9937% (74%)20,000 .. 50,0000%00:00 (00:00)
295 WARSHIFT Oct 12, 2016 $12.9937% (74%)20,000 .. 50,0000%00:00 (00:00)
296 Battle Fleet 2 Nov 20, 2014 $14.9935% (73%)20,000 .. 50,0000%00:00 (00:00)
297 Viktor Jun 13, 2014 $0.7935% (73%)20,000 .. 50,0000%00:00 (00:00)
298 Supreme Ruler Ultimate Oct 17, 2014 $19.9935% (73%)20,000 .. 50,0000%00:00 (00:00)
299 Codex of Victory Mar 16, 2017 $14.9935% (73%)0 .. 20,00012%03:42 (03:42)
300 Divinity: Dragon Commander Aug 6, 2013 $39.9935% (73%)200,000 .. 500,0000%00:00 (00:00)
301 FEIST Jul 23, 2015 $9.9935% (73%/65%)20,000 .. 50,0000%00:00 (00:00)
302 Sid Meier’s Ace Patrol Aug 27, 2013 $4.9935% (73%)500,000 .. 1,000,0000.2%08:18 (02:46)
303 Rex Rocket Aug 5, 2014 $4.9935% (73%)20,000 .. 50,0000%00:00 (00:00)
304 Distant Worlds: Universe May 23, 2014 $59.9935% (73%/81%)50,000 .. 100,0005.13%04:35 (03:03)
305 Gold Rush! Anniversary Nov 7, 2014 $5.99N/A (N/A)100,000 .. 200,0000.58%02:03 (01:22)
306 Hot Tin Roof: The Cat That Wore A Fedora Feb 20, 2015 $14.9935% (73%/66%)100,000 .. 200,0000.67%01:32 (00:30)
307 Ubersoldier II Mar 25, 2014 $1.9935% (73%/62%)100,000 .. 200,0000%00:00 (00:00)
308 Retrovirus Jan 31, 2013 $9.9934% (72%/70%)20,000 .. 50,0000%00:00 (00:00)
309 Cast of the Seven Godsends - Redux Jul 20, 2015 $9.9934% (72%)20,000 .. 50,0000%00:00 (00:00)
310 Elliot Quest Nov 10, 2014 $9.9934% (72%)20,000 .. 50,0001.43%00:15 (00:05)
311 Disney Planes Oct 6, 2014 $19.99N/A (N/A)0 .. 20,0000%00:00 (00:00)
312 Auro: A Monster-Bumping Adventure Apr 13, 2016 $6.99N/A (N/A)0 .. 20,0000%00:00 (00:00)
313 King Arthur - The Role-playing Wargame Nov 24, 2009 $9.9934% (72%)200,000 .. 500,0000%00:00 (00:00)
314 Wyv and Keep: The Temple of the Lost Idol Aug 8, 2014 $14.99N/A (N/A)20,000 .. 50,0000%00:00 (00:00)
315 Deadnaut Dec 8, 2014 $9.9934% (72%)0 .. 20,0000%00:00 (00:00)
316 VRZ: Torment Jun 9, 2016 $9.9934% (72%)0 .. 20,0000%00:00 (00:00)
317 Elven Legacy Apr 7, 2009 $4.9934% (72%/71%)50,000 .. 100,0000%00:00 (00:00)
318 REDCON Apr 22, 2016 $5.9934% (72%)0 .. 20,0005.56%00:08 (00:02)
319 Lost Planet: Extreme Condition Jun 26, 2007 $14.9934% (72%/66%)200,000 .. 500,0000.57%00:01 (00:00)
320 Airship Dragoon Aug 26, 2014 $19.99N/A (N/A)0 .. 20,0000%00:00 (00:00)
321 Warp Mar 21, 2012 $9.9934% (72%)20,000 .. 50,0000%00:00 (00:00)
322 Smithy Jun 3, 2016 $3.99N/A (N/A)50,000 .. 100,0000%00:00 (00:00)
323 Pongo May 11, 2015 $0.9934% (72%)100,000 .. 200,0000%00:00 (00:00)
324 Rise & Shine Jan 13, 2017 $14.9934% (72%)50,000 .. 100,0006.47%02:15 (01:23)
325 Banzai Escape Feb 29, 2016 $5.9934% (72%)20,000 .. 50,0000%00:00 (00:00)
326 Pick a Hero Jun 9, 2016 $1.99N/A (N/A)0 .. 20,0000%00:00 (00:00)
327 Wildlife Park 2 - Crazy Zoo Jul 17, 2014 $3.99N/A (N/A)0 .. 20,0000%00:00 (00:00)
328 Incandescent Jun 30, 2015 $0.9934% (72%)20,000 .. 50,0000%00:00 (00:00)
329 Tom Clancy's EndWar Feb 25, 2009 $9.9932% (71%/68%)50,000 .. 100,0000%00:00 (00:00)
330 Phoning Home Feb 7, 2017 $19.9932% (71%/61%)20,000 .. 50,0003.13%01:42 (00:47)
331 Battle Time Sep 29, 2016 $0.9932% (71%)50,000 .. 100,0001.36%02:47 (01:51)
332 rooMaze Mar 3, 2017 $1.9932% (71%)100,000 .. 200,0000%00:00 (00:00)
333 Fatal Fight Jun 10, 2016 $2.99N/A (N/A)0 .. 20,0000%00:00 (00:00)
334 Spud's Quest Jul 31, 2014 $7.99N/A (N/A)0 .. 20,0000%00:00 (00:00)
335 FIVE: Champions of Canaan Sep 27, 2016 $3.99N/A (N/A)0 .. 20,0000%00:00 (00:00)
336 There Came an Echo Feb 24, 2015 $14.9932% (71%/58%)20,000 .. 50,0000%00:00 (00:00)
337 Cross of the Dutchman Sep 10, 2015 $8.9932% (71%/59%)20,000 .. 50,0001.67%01:46 (00:35)
338 The Last Federation Apr 18, 2014 $19.9932% (71%/72%)50,000 .. 100,0000%00:00 (00:00)
339 AirMech Command Mar 8, 2017 $19.9932% (71%)0 .. 20,0000%00:00 (00:00)
340 Civil War: Battle of Petersburg Feb 8, 2017 $0.9932% (71%)0 .. 20,0000%00:00 (00:00)
341 Zoo Empire Sep 3, 2015 $6.99N/A (N/A/59%)0 .. 20,0000%00:00 (00:00)
342 LEGO Indiana Jones 2: The Adventure Continues Feb 18, 2010 $19.9932% (71%/66%)50,000 .. 100,0000%00:00 (00:00)
343 Jagged Alliance 2 - Wildfire Nov 16, 2012 $6.9932% (71%)500,000 .. 1,000,0000.95%06:40 (07:03)
344 A.R.E.S.: Extinction Agenda Jan 19, 2011 $4.9930% (70%/68%)100,000 .. 200,0000%00:00 (00:00)
345 Collapse Apr 11, 2014 $19.9930% (70%)50,000 .. 100,0000%00:00 (00:00)
346 8-Bit Commando Jun 2, 2014 $2.9930% (70%)50,000 .. 100,0001.83%00:02 (00:01)
347 BitMaster Oct 12, 2016 $2.9930% (70%)200,000 .. 500,0000.19%00:01 (00:00)
348 Lux Delux May 1, 2015 $9.9930% (70%)20,000 .. 50,0000%00:00 (00:00)
349 Space Colony: Steam Edition Apr 30, 2015 $14.9930% (70%/74%)20,000 .. 50,0001.79%00:32 (00:10)
350 Strategy & Tactics: Wargame Collection Apr 22, 2016 $9.9929% (69%)20,000 .. 50,0000%00:00 (00:00)
351 Little King's Story Aug 5, 2016 $19.9929% (69%/62%)0 .. 20,0000%00:00 (00:00)
352 Othello Mar 19, 2015 $9.9929% (69%)0 .. 20,0000%00:00 (00:00)
353 Sol 0: Mars Colonization Jan 15, 2016 $3.9929% (69%)20,000 .. 50,0000%00:00 (00:00)
354 Warrior Kings Apr 24, 2014 $9.99N/A (N/A/73%)20,000 .. 50,0000%00:00 (00:00)
355 Panzer Tactics HD May 22, 2014 $9.9929% (69%/69%)20,000 .. 50,0000%00:00 (00:00)
356 The Nightmare Cooperative Jul 16, 2014 $4.99N/A (N/A)50,000 .. 100,0001.87%00:05 (00:03)
357 The Superfluous May 19, 2017 $4.99N/A (N/A)0 .. 20,0000%00:00 (00:00)
358 Brigade E5: New Jagged Union Apr 30, 2014 $3.9927% (68%/41%)0 .. 20,0000%00:00 (00:00)
359 YAIBA: NINJA GAIDEN Z Mar 21, 2014 $29.9927% (68%/49%)20,000 .. 50,0006.9%00:54 (00:36)
360 Pigmentone Jul 8, 2016 $1.99N/A (N/A)0 .. 20,0003.23%09:28 (03:09)
361 Alea Jacta Est Nov 4, 2014 $24.99N/A (N/A)20,000 .. 50,0000%00:00 (00:00)
362 Guns n Zombies Oct 30, 2014 $7.9927% (68%)100,000 .. 200,0000%00:00 (00:00)
363 Revolution Under Siege Gold Jul 2, 2015 $24.9927% (68%)0 .. 20,0000%00:00 (00:00)
364 The Living Dungeon Nov 2, 2015 $9.99N/A (N/A)0 .. 20,0000%00:00 (00:00)
365 Space Food Truck Mar 25, 2016 $9.9927% (68%)20,000 .. 50,0000%00:00 (00:00)
366 Gates of Horizon Dec 18, 2014 Free27% (68%)0 .. 20,0000%00:00 (00:00)
367 Bedlam Oct 13, 2015 $12.9927% (68%/54%)100,000 .. 200,0000%00:00 (00:00)
368 Chainsaw Warrior Oct 7, 2013 $0.4927% (68%)100,000 .. 200,0001.41%02:25 (02:02)
369 ManaCollect Apr 17, 2015 $6.99N/A (N/A)0 .. 20,0000%00:00 (00:00)
370 Royal Defense Nov 10, 2014 $4.9927% (68%)50,000 .. 100,0000%00:00 (00:00)
371 The Hive Aug 25, 2016 $9.9926% (67%)20,000 .. 50,0000%00:00 (00:00)
372 Toren May 11, 2015 $9.9926% (67%/57%)50,000 .. 100,0000%00:00 (00:00)
373 Heroes of Arca Feb 16, 2017 Free26% (67%)0 .. 20,0000%00:00 (00:00)
374 FIVE: Guardians of David Nov 24, 2015 $9.9926% (67%/66%)20,000 .. 50,0000%00:00 (00:00)
375 Zafehouse: Diaries Sep 6, 2013 $1.9926% (67%)50,000 .. 100,0000%00:00 (00:00)
376 Infinity Runner Jul 14, 2014 $6.9926% (67%/56%)0 .. 20,0000%00:00 (00:00)
377 Nomad Fleet Apr 19, 2016 $4.9926% (67%)0 .. 20,0007.69%04:42 (01:34)
378 Kill The Plumber Dec 31, 2015 $4.9926% (67%)0 .. 20,0000%00:00 (00:00)
379 Toy Odyssey: The Lost and Found Sep 20, 2016 $14.9926% (67%/66%)20,000 .. 50,0000%00:00 (00:00)
380 Stonerid Aug 15, 2014 $4.9926% (67%)20,000 .. 50,0000%00:00 (00:00)
381 Survivor Squad: Gauntlets Nov 16, 2015 $0.9926% (67%)20,000 .. 50,0001.59%00:04 (00:01)
382 Theatre of War 2: Africa 1943 Jul 9, 2010 $4.9924% (66%/63%)100,000 .. 200,0000.79%00:24 (00:08)
383 Sky To Fly: Faster Than Wind Mar 25, 2016 $3.99N/A (N/A)0 .. 20,0000%00:00 (00:00)
384 Zombie City Defense 2 Aug 19, 2016 $9.9924% (66%)0 .. 20,0000%00:00 (00:00)
385 1775: Rebellion Sep 29, 2016 $24.99N/A (N/A)0 .. 20,0000%00:00 (00:00)
386 Fair Strike Apr 23, 2015 $3.99N/A (N/A/56%)0 .. 20,0000%00:00 (00:00)
387 Quick Slick Deadly Sep 21, 2015 $1.99N/A (N/A)20,000 .. 50,0000%00:00 (00:00)
388 Marauder Apr 4, 2014 $1.9924% (66%)50,000 .. 100,0000%00:00 (00:00)
389 Commander Cool 2 Dec 17, 2015 $2.99N/A (N/A)20,000 .. 50,0001.37%02:56 (00:58)
390 Men of War: Condemned Heroes Apr 12, 2012 $7.9924% (66%/57%)100,000 .. 200,0000%00:00 (00:00)
391 RISK: Factions Mar 8, 2011 $9.9924% (66%/77%)50,000 .. 100,0000%00:00 (00:00)
392 Mad Combat Marines Jul 13, 2016 $0.9924% (66%)20,000 .. 50,0002.94%00:09 (00:04)
393 Sengoku Sep 15, 2011 $9.9924% (66%/70%)100,000 .. 200,0000%00:00 (00:00)
394 Scourge: Outbreak Apr 2, 2014 $7.9924% (66%)100,000 .. 200,0000%00:00 (00:00)
395 1849 May 8, 2014 $14.9924% (66%)20,000 .. 50,0000%00:00 (00:00)
396 Assassin’s Creed Chronicles: India Jan 12, 2016 $9.9924% (66%)20,000 .. 50,0001.41%00:10 (00:03)
397 Zombie Camp Jul 31, 2016 $1.99N/A (N/A)0 .. 20,0000%00:00 (00:00)
398 March of the Eagles Feb 18, 2013 $19.9924% (66%/71%)50,000 .. 100,0000%00:00 (00:00)
399 Urban Pirate Jun 17, 2016 $6.99N/A (N/A)0 .. 20,0000%00:00 (00:00)
400 Ground Breakers Jun 15, 2016 $0.99N/A (N/A)0 .. 20,0000%00:00 (00:00)
401 7th Legion Oct 23, 2014 $6.99N/A (N/A)20,000 .. 50,0000%00:00 (00:00)
402 Zombie Tycoon 2: Brainhov's Revenge Dec 9, 2013 $4.9923% (65%)50,000 .. 100,0000%00:00 (00:00)
403 Platypus II Aug 15, 2014 $6.9923% (65%)200,000 .. 500,0000.83%01:50 (02:03)
404 Zoo Rampage Jul 9, 2014 $3.9922% (64%)20,000 .. 50,0000%00:00 (00:00)
405 Port Royale 2 Jun 16, 2009 $4.9922% (64%/75%)50,000 .. 100,0000%00:00 (00:00)
406 Theatre of War 2: Kursk 1943 Jul 9, 2010 $4.9922% (64%)50,000 .. 100,0001.3%01:26 (00:28)
407 UnSummoning: the Spectral Horde Dec 21, 2015 FreeN/A (N/A)0 .. 20,0000%00:00 (00:00)
408 Frozen Synapse Prime Nov 14, 2014 $24.9922% (64%/83%)100,000 .. 200,0000%00:00 (00:00)
409 Kaiju-A-GoGo Apr 23, 2015 $9.9922% (64%)20,000 .. 50,0000%00:00 (00:00)
410 Hunters Of The Dead Sep 4, 2014 $4.9922% (64%)20,000 .. 50,0000%00:00 (00:00)
411 Devil's Dare 悪魔の挑戦 Oct 21, 2014 $12.9922% (64%)20,000 .. 50,0000%00:00 (00:00)
412 Revenge of Roger Rouge Apr 22, 2016 $0.99N/A (N/A)20,000 .. 50,0000%00:00 (00:00)
413 The Seven Years War (1756-1763) Oct 30, 2015 $1.9922% (64%)0 .. 20,0000%00:00 (00:00)
414 My Super Tower 2 Jan 27, 2017 $0.99N/A (N/A)50,000 .. 100,0004.08%03:42 (02:27)
415 Link Apr 22, 2016 $4.99N/A (N/A)0 .. 20,0000%00:00 (00:00)
416 Jagged Alliance: Crossfire Aug 24, 2012 $14.9922% (64%/63%)100,000 .. 200,0000%00:00 (00:00)
417 Warlock 2: The Exiled Apr 10, 2014 $19.9922% (64%/73%)50,000 .. 100,0000%00:00 (00:00)
418 Gnumz: Masters of Defense Dec 21, 2015 $4.99N/A (N/A)20,000 .. 50,0000%00:00 (00:00)
419 Pixel Boy and the Ever Expanding Dungeon May 30, 2014 $0.9921% (63%)20,000 .. 50,0000%00:00 (00:00)
420 To End All Wars Aug 29, 2014 $39.9921% (63%/71%)0 .. 20,00011.11%01:17 (00:25)
421 Battle Worlds: Kronos Nov 4, 2013 $19.9921% (63%/71%)20,000 .. 50,0003.85%00:12 (00:04)
422 Beasts Battle Jun 15, 2016 $1.99N/A (N/A)20,000 .. 50,0000%00:00 (00:00)
423 Sorcerer King: Rivals Sep 22, 2016 $19.9921% (63%)20,000 .. 50,0000%00:00 (00:00)
424 Malebolgia May 6, 2015 $12.9921% (63%)0 .. 20,0000%00:00 (00:00)
425 Double Dragon IV Jan 30, 2017 $6.9921% (63%/50%)0 .. 20,0000%00:00 (00:00)
426 The Few Jun 18, 2014 $7.9921% (63%)20,000 .. 50,0000%00:00 (00:00)
427 Overruled! Sep 15, 2015 $12.99N/A (N/A)20,000 .. 50,0000%00:00 (00:00)
428 Disney Pirates of the Caribbean: At Worlds End Oct 6, 2014 $19.9921% (63%)0 .. 20,0000%00:00 (00:00)
429 A Game of Dwarves Oct 23, 2012 $9.9921% (63%/60%)50,000 .. 100,0000%00:00 (00:00)
430 Goblin Defenders: Steel‘n’ Wood Nov 23, 2015 $2.99N/A (N/A)20,000 .. 50,0000%00:00 (00:00)
431 Hyperspace Pinball Sep 30, 2015 $2.99N/A (N/A)0 .. 20,0000%00:00 (00:00)
432 SPACECOM Sep 17, 2014 $9.9920% (62%/68%)100,000 .. 200,0000.9%01:03 (00:43)
433 4089: Ghost Within Jan 9, 2015 $5.9920% (62%)0 .. 20,0000%00:00 (00:00)
434 Spirit of War Mar 12, 2015 $9.99N/A (N/A)20,000 .. 50,0000%00:00 (00:00)
435 Desert Ashes Nov 10, 2014 $4.99N/A (N/A)20,000 .. 50,0000%00:00 (00:00)
436 Supreme Ruler: Cold War Jul 29, 2011 $9.9920% (62%/63%)20,000 .. 50,0000%00:00 (00:00)
437 Disney Epic Mickey 2: The Power of Two Oct 6, 2014 $19.9920% (62%)20,000 .. 50,0000%00:00 (00:00)
438 Freight Tycoon Inc. Apr 3, 2014 $4.9920% (62%)20,000 .. 50,0002.44%03:02 (01:00)
439 Flashback Oct 1, 2013 $9.9918% (61%)20,000 .. 50,0000%00:00 (00:00)
440 Disciples III - Renaissance Steam Special Edition Jul 16, 2010 $14.9918% (61%/56%)100,000 .. 200,0000.48%00:01 (00:00)
441 Close Combat - Panthers in the Fog May 14, 2015 $39.9918% (61%)0 .. 20,0000%00:00 (00:00)
442 Spice Road Apr 24, 2014 $19.99N/A (N/A)0 .. 20,0000%00:00 (00:00)
443 War, the Game Jan 12, 2015 $6.9918% (61%/65%)20,000 .. 50,0000%00:00 (00:00)
444 Legions of Steel Jul 16, 2015 $19.99N/A (N/A/64%)0 .. 20,0000%00:00 (00:00)
445 NOBUNAGA'S AMBITION: Sphere of Influence - Ascension / 信長の野望・創造 戦国立志伝 Mar 23, 2016 $59.9918% (61%)100,000 .. 200,0000%00:00 (00:00)
446 Bombshell Jan 29, 2016 $34.9918% (61%/43%)20,000 .. 50,0003.92%08:46 (05:50)
447 Purgatory Jun 22, 2016 $0.4917% (60%)200,000 .. 500,0000%00:00 (00:00)
448 Defend Your Crypt Jul 21, 2016 $2.99N/A (N/A)0 .. 20,0007.14%301:11 (100:23)
449 Rise: Battle Lines Nov 17, 2015 $1.99N/A (N/A)0 .. 20,0000%00:00 (00:00)
450 Men of War: Vietnam Sep 8, 2011 $7.9917% (60%/68%)100,000 .. 200,0000%00:00 (00:00)
451 Will Fight for Food: Super Actual Sellout: Game of the Hour Apr 22, 2015 $4.99N/A (N/A)0 .. 20,0000%00:00 (00:00)
452 Merchants of Kaidan Nov 10, 2014 $14.9917% (60%)100,000 .. 200,0000%00:00 (00:00)
453 Hybrid Wars Sep 29, 2016 $6.9917% (60%/54%)0 .. 20,0000%00:00 (00:00)
454 Call of Duty: Black Ops - Mac Edition Sep 27, 2012 $19.9917% (60%)50,000 .. 100,0001.54%00:08 (00:02)
455 Heavy Fire: Afghanistan Aug 15, 2014 $2.9917% (60%)20,000 .. 50,0000%00:00 (00:00)
456 BattleLore: Command Mar 31, 2015 $6.9917% (60%)0 .. 20,0000%00:00 (00:00)
457 Assault on Arnhem Mar 11, 2016 $9.99N/A (N/A)0 .. 20,0000%00:00 (00:00)
458 Woolfe - The Red Hood Diaries Mar 17, 2015 $9.9917% (60%/55%)50,000 .. 100,0000%00:00 (00:00)
459 Patrician IV - Steam Special Edition Sep 17, 2010 $14.9916% (59%/66%)100,000 .. 200,0000%00:00 (00:00)
460 Check vs Mate Aug 16, 2012 $19.9916% (59%/69%)0 .. 20,0000%00:00 (00:00)
461 Colonial Conquest Jul 28, 2015 $9.9916% (59%)0 .. 20,0000%00:00 (00:00)
462 Skyshine's BEDLAM Sep 16, 2015 $19.9916% (59%/67%)20,000 .. 50,0000%00:00 (00:00)
463 Prospekt Feb 18, 2016 $9.9916% (59%)20,000 .. 50,0008%00:38 (00:18)
464 Antisquad May 22, 2014 $5.9916% (59%)50,000 .. 100,0000%00:00 (00:00)
465 Quarantine Feb 9, 2017 $9.9916% (59%)0 .. 20,0000%00:00 (00:00)
466 Armada 2526 Gold Edition Feb 28, 2013 $19.9916% (59%/66%)20,000 .. 50,0000%00:00 (00:00)
467 7 Grand Steps: What Ancients Begat Jun 7, 2013 $19.9916% (59%)100,000 .. 200,0000%00:00 (00:00)
468 Ninjahtic Mind Tricks Jul 16, 2015 $1.99N/A (N/A)0 .. 20,0000%00:00 (00:00)
469 Wanderlust Adventures Aug 10, 2015 $9.9916% (59%)20,000 .. 50,0000%00:00 (00:00)
470 Sir! I'd Like To Report A Bug! Oct 19, 2015 $1.99N/A (N/A)0 .. 20,0000%00:00 (00:00)
471 Unearthed: Trail of Ibn Battuta - Episode 1 - Gold Edition Jan 3, 2014 $4.9915% (58%)20,000 .. 50,0000%00:00 (00:00)
472 Woodle Tree 2: Worlds Sep 16, 2016 $3.9915% (58%)50,000 .. 100,0000%00:00 (00:00)
473 Prophour23 Oct 22, 2014 $9.99N/A (N/A)0 .. 20,0000%00:00 (00:00)
474 Cemetery Warrior 3 Feb 3, 2017 $0.9915% (58%)50,000 .. 100,0000%00:00 (00:00)
475 Battleplan: American Civil War Jul 4, 2014 $9.9915% (58%/66%)100,000 .. 200,0000.88%03:46 (01:13)
476 Crazy Forest Jul 6, 2016 $4.99N/A (N/A)100,000 .. 200,0000%00:00 (00:00)
477 E.T. Armies Mar 3, 2016 $14.9915% (58%/54%)0 .. 20,0000%00:00 (00:00)
478 Ceres Oct 16, 2015 $3.5915% (58%/74%)0 .. 20,0000%00:00 (00:00)
479 Rise of Venice Sep 27, 2013 $19.9914% (57%/66%)50,000 .. 100,0000%00:00 (00:00)
480 Code of Princess Apr 14, 2016 $14.9914% (57%/53%)0 .. 20,0000%00:00 (00:00)
481 Life in Bunker Feb 25, 2016 $15.9914% (57%)0 .. 20,0000%00:00 (00:00)
482 Stay Dead Evolution Feb 4, 2015 $5.99N/A (N/A)20,000 .. 50,0000%00:00 (00:00)
483 Abalone Apr 23, 2014 $6.99N/A (N/A)20,000 .. 50,00013.79%04:29 (06:38)
484 DreamBreak Jul 21, 2016 $6.99N/A (N/A/46%)20,000 .. 50,0000%00:00 (00:00)
485 Super Helmets on Fire DX Ultra Edition Plus Alpha Feb 15, 2016 $0.99N/A (N/A)0 .. 20,0000%00:00 (00:00)
486 Horizon Feb 6, 2014 $29.9913% (56%/58%)50,000 .. 100,0000%00:00 (00:00)
487 Story Of the Survivor Feb 16, 2016 $4.99N/A (N/A)50,000 .. 100,0000%00:00 (00:00)
488 Delve Deeper Sep 24, 2010 $4.9913% (56%)50,000 .. 100,0000%00:00 (00:00)
489 VR Journey Dec 15, 2016 $2.99N/A (N/A)20,000 .. 50,0000%00:00 (00:00)
490 Adventure World Aug 2, 2016 $4.99N/A (N/A)0 .. 20,0000%00:00 (00:00)
491 Pain Train Jan 11, 2017 $0.4913% (55%)50,000 .. 100,0000.65%03:23 (01:07)
492 BC Kings Jun 16, 2009 $4.9912% (54%)20,000 .. 50,0000%00:00 (00:00)
493 Meridian: Squad 22 Aug 11, 2016 $14.99N/A (N/A)0 .. 20,0000%00:00 (00:00)
494 Urja Jan 9, 2015 $9.9912% (54%)20,000 .. 50,0000%00:00 (00:00)
495 RESCUE 2: Everyday Heroes Jun 3, 2015 $19.9912% (54%)20,000 .. 50,00012.5%01:53 (00:37)
496 Smugglers 5 Apr 11, 2014 $9.9911% (53%)20,000 .. 50,0000%00:00 (00:00)
497 Wickland Feb 6, 2015 $0.9911% (53%)50,000 .. 100,0000.51%00:58 (00:19)
498 Armada 2526 Apr 8, 2011 $14.99N/A (N/A/66%)0 .. 20,0000%00:00 (00:00)
499 MDK2 HD Jul 30, 2012 $14.9911% (53%/73%)0 .. 20,0000%00:00 (00:00)
500 The Stalin Subway Sep 19, 2014 $3.9911% (53%)20,000 .. 50,0000%00:00 (00:00)
501 Tic-Toc-Tower Sep 28, 2015 $2.99N/A (N/A)0 .. 20,0000%00:00 (00:00)
502 Weather Lord: The Successor's Path May 7, 2015 $4.99N/A (N/A)0 .. 20,0000%00:00 (00:00)
503 Grim Seventh Jan 20, 2017 FreeN/A (N/A)0 .. 20,0000%00:00 (00:00)
504 Crusaders: Thy Kingdom Come Oct 8, 2009 $9.99N/A (N/A)0 .. 20,0000%00:00 (00:00)
505 Sovereignty: Crown of Kings Feb 2, 2017 $24.9911% (52%)0 .. 20,0000%00:00 (00:00)
506 MinosMaze - The Minotaur's Labyrinth May 1, 2017 $4.99N/A (N/A)0 .. 20,0000%00:00 (00:00)
507 Castle Werewolf 3D Feb 7, 2017 $2.99N/A (N/A)50,000 .. 100,0004.88%04:24 (04:34)
508 Aggression: Europe Under Fire Apr 9, 2014 $1.4910% (51%)50,000 .. 100,0000%00:00 (00:00)
509 Chronostorm: Siberian Border Nov 20, 2015 $0.62N/A (N/A)0 .. 20,0000%00:00 (00:00)
510 Biodrone Battle Jul 16, 2015 $1.9910% (51%)100,000 .. 200,0000.47%01:05 (00:21)
511 Dusty Revenge:Co-Op Edition Feb 17, 2014 $14.9910% (51%)50,000 .. 100,0000.68%01:36 (00:32)
512 Royal Bounty HD Aug 10, 2015 $2.9910% (51%)0 .. 20,0000%00:00 (00:00)
513 Meridian: New World Sep 26, 2014 $6.9910% (51%/43%)100,000 .. 200,0000%00:00 (00:00)
514 Nightside Aug 6, 2015 $4.9910% (51%)20,000 .. 50,0000%00:00 (00:00)
515 Rubber and Lead Sep 4, 2015 $4.99N/A (N/A)20,000 .. 50,0000%00:00 (00:00)
516 Guncraft Aug 9, 2013 $14.9910% (50%/73%)100,000 .. 200,0000%00:00 (00:00)
517 Megamagic: Wizards of the Neon Age Apr 20, 2016 $9.9910% (50%/67%)20,000 .. 50,0000%00:00 (00:00)
518 Aegis Oct 6, 2016 $2.99N/A (N/A)0 .. 20,0000%00:00 (00:00)
519 Scapeland Mar 31, 2016 $3.99N/A (N/A)0 .. 20,0000%00:00 (00:00)
520 Albedo: Eyes from Outer Space Apr 10, 2015 $14.999% (49%/66%)50,000 .. 100,0000%00:00 (00:00)
521 Kidnapped Aug 4, 2015 $2.999% (49%)100,000 .. 200,0000%00:00 (00:00)
522 Odd||Even Apr 6, 2016 $0.99N/A (N/A)20,000 .. 50,0000%00:00 (00:00)
523 Synonymy Mar 5, 2015 $1.99N/A (N/A)0 .. 20,0000%00:00 (00:00)
524 Marvel: Ultimate Alliance 2 Jul 26, 2016 N/A8% (48%)0 .. 20,0000%00:00 (00:00)
525 Star Traders: 4X Empires Dec 16, 2014 $9.99N/A (N/A)0 .. 20,0000%00:00 (00:00)
526 Island Defense Jul 23, 2015 $1.99N/A (N/A)50,000 .. 100,0000%00:00 (00:00)
527 Hell Nov 13, 2014 $29.99N/A (N/A)0 .. 20,0000%00:00 (00:00)
528 Blasting Agent: Ultimate Edition Aug 17, 2016 $2.99N/A (N/A)0 .. 20,0000%00:00 (00:00)
529 Hero Generations Apr 10, 2015 $5.998% (47%)0 .. 20,0000%00:00 (00:00)
530 Disposable Heroes Mar 22, 2016 $4.99N/A (N/A)20,000 .. 50,0000%00:00 (00:00)
531 Z Steel Soldiers Aug 1, 2014 $12.997% (46%)50,000 .. 100,0000.45%00:02 (00:00)
532 PeriAreion Feb 19, 2015 $5.99N/A (N/A)0 .. 20,0000%00:00 (00:00)
533 Carrier Command: Gaea Mission Sep 28, 2012 $32.997% (46%/60%)200,000 .. 500,0000%00:00 (00:00)
534 Defence to death May 11, 2017 $1.99N/A (N/A)100,000 .. 200,0000.3%09:47 (03:15)
535 The Stalin Subway: Red Veil Oct 24, 2014 $2.997% (46%)50,000 .. 100,0000%00:00 (00:00)
536 Pride of Nations Jun 7, 2011 $19.997% (46%/70%)20,000 .. 50,0000%00:00 (00:00)
537 No Pineapple Left Behind Feb 18, 2016 $6.99N/A (N/A/59%)0 .. 20,0000%00:00 (00:00)
538 HitBox Jan 30, 2017 Free7% (46%)0 .. 20,0000%00:00 (00:00)
539 World War 2: Time of Wrath Jun 6, 2014 $0.99N/A (N/A)20,000 .. 50,0000%00:00 (00:00)
540 Magic Quest May 6, 2016 $1.99N/A (N/A)50,000 .. 100,0000%00:00 (00:00)
541 Crossfire: Dungeons May 21, 2015 $3.997% (46%)0 .. 20,0000%00:00 (00:00)
542 The Campaign Series: Fall Weiss May 30, 2014 $2.99N/A (N/A)20,000 .. 50,0000%00:00 (00:00)
543 Impire Feb 14, 2013 $19.997% (45%/45%)100,000 .. 200,0000%00:00 (00:00)
544 Redemption: Saints And Sinners Nov 18, 2016 $0.997% (45%)50,000 .. 100,0000.66%00:34 (00:22)
545 Skyward Collapse May 23, 2013 $4.997% (45%/64%)100,000 .. 200,0000%00:00 (00:00)
546 ALONE IN SPACE Feb 22, 2016 $9.997% (45%)0 .. 20,0000%00:00 (00:00)
547 The Bluecoats: North vs South Feb 2, 2015 $4.996% (44%)50,000 .. 100,0000%00:00 (00:00)
548 Commander: Conquest of the Americas Jul 30, 2010 $9.996% (44%/68%)50,000 .. 100,0000%00:00 (00:00)
549 Battle Chess: Game of Kings Dec 11, 2015 $29.996% (44%)0 .. 20,0000%00:00 (00:00)
550 Vendetta - Curse of Raven's Cry Nov 20, 2015 $29.996% (43%)0 .. 20,0000%00:00 (00:00)
551 Dungeons Feb 10, 2011 $9.996% (43%/65%)200,000 .. 500,0000%00:00 (00:00)
552 The Entente Gold Jun 16, 2014 $1.996% (43%)50,000 .. 100,0002.3%00:46 (00:30)
553 Rulers of Nations Jul 16, 2014 $19.996% (42%/63%)0 .. 20,0000%00:00 (00:00)
554 Nux Aug 15, 2014 $6.99N/A (N/A)100,000 .. 200,0000.36%04:39 (03:06)
555 Sword of the Stars II: Enhanced Edition Nov 30, 2012 $19.996% (42%/65%)100,000 .. 200,0000%00:00 (00:00)
556 Samudai Feb 9, 2015 $2.99N/A (N/A)20,000 .. 50,0000%00:00 (00:00)
557 Burstfire Sep 24, 2015 N/A5% (41%)50,000 .. 100,0000%00:00 (00:00)
558 Hydraulic Empire Jul 31, 2015 $7.99N/A (N/A)0 .. 20,0000%00:00 (00:00)
559 Devils & Demons Oct 6, 2015 $9.99N/A (N/A)20,000 .. 50,0000%00:00 (00:00)
560 Mechs & Mercs: Black Talons Jan 9, 2015 $9.995% (40%)0 .. 20,0000%00:00 (00:00)
561 Risk Jun 10, 2013 $9.995% (40%)20,000 .. 50,0000%00:00 (00:00)
562 Pain Train 2 Mar 16, 2017 $6.995% (40%)20,000 .. 50,0000%00:00 (00:00)
563 Strategic War in Europe Mar 21, 2014 $14.995% (39%)20,000 .. 50,0000%00:00 (00:00)
564 Gratuitous Space Battles 2 Apr 16, 2015 $9.995% (39%)20,000 .. 50,0000%00:00 (00:00)
565 Dark Matter Oct 17, 2013 $9.995% (39%)0 .. 20,0000%00:00 (00:00)
566 Knight Adventure Oct 15, 2015 $0.99N/A (N/A)50,000 .. 100,0000%00:00 (00:00)
567 Wave of Darkness Nov 5, 2015 $29.99N/A (N/A)0 .. 20,0000%00:00 (00:00)
568 Dungeons - The Dark Lord Sep 27, 2011 $19.994% (38%/72%)100,000 .. 200,0000%00:00 (00:00)
569 Tiamat X May 29, 2015 $1.99N/A (N/A)50,000 .. 100,0000%00:00 (00:00)
570 Dead But Alive! Southern England Oct 2, 2015 $14.99N/A (N/A)0 .. 20,0000%00:00 (00:00)
571 Lost in Paradise Aug 20, 2015 $2.99N/A (N/A)20,000 .. 50,0000%00:00 (00:00)
572 Heavy Fire: Shattered Spear Oct 23, 2015 $3.99N/A (N/A)0 .. 20,0000%00:00 (00:00)
573 The Kings' Crusade Oct 8, 2010 $9.994% (38%/71%)50,000 .. 100,0000%00:00 (00:00)
574 Infection: Humanity's Last Gasp May 26, 2016 $9.99N/A (N/A)0 .. 20,0002.13%03:31 (01:10)
575 Zombie Apocalypse: Escape The Undead City Jun 17, 2016 $0.99N/A (N/A)0 .. 20,0000%00:00 (00:00)
576 Control Craft 2 Feb 15, 2016 $2.99N/A (N/A)0 .. 20,0000%00:00 (00:00)
577 Stellar Impact Apr 12, 2012 $9.994% (37%/74%)50,000 .. 100,0000.71%05:21 (01:47)
578 Shadows of War Jan 2, 2015 $2.994% (36%)20,000 .. 50,0000%00:00 (00:00)
579 Sim Junta Aug 18, 2015 $0.493% (35%)0 .. 20,0000%00:00 (00:00)
580 Blue Sheep Mar 31, 2016 $1.99N/A (N/A)0 .. 20,0000%00:00 (00:00)
581 Urban Empire Jan 20, 2017 $29.993% (35%/62%)50,000 .. 100,0000%00:00 (00:00)
582 Disciples III - Resurrection Oct 11, 2011 $14.993% (34%/63%)100,000 .. 200,0000%00:00 (00:00)
583 CTU: Counter Terrorism Unit Apr 22, 2016 $4.99N/A (N/A)0 .. 20,0000%00:00 (00:00)
584 Into the Void Dec 4, 2015 $4.99N/A (N/A)20,000 .. 50,0000%00:00 (00:00)
585 Ranger of the jungle Jul 18, 2016 $3.99N/A (N/A)0 .. 20,0000%00:00 (00:00)
586 Fallen: A2P Protocol Aug 14, 2015 $9.993% (33%)20,000 .. 50,0000%00:00 (00:00)
587 Jagged Alliance Flashback Oct 21, 2014 $19.993% (33%)20,000 .. 50,0000%00:00 (00:00)
588 Arma Tactics Oct 1, 2013 $8.993% (33%/47%)200,000 .. 500,0000.21%00:01 (00:00)
589 Kick-Ass 2 Aug 15, 2014 $19.993% (32%)20,000 .. 50,0000%00:00 (00:00)
590 A Game of Thrones - Genesis Sep 28, 2011 $9.992% (31%)100,000 .. 200,0000%00:00 (00:00)
591 Zombies on a Plane Mar 25, 2016 $4.99N/A (N/A)20,000 .. 50,0000%00:00 (00:00)
592 Psichodelya Aug 8, 2014 $1.99N/A (N/A)100,000 .. 200,0000%00:00 (00:00)
593 Evopollution Apr 23, 2014 $4.992% (31%)0 .. 20,0000%00:00 (00:00)
594 Zombie Zoeds May 20, 2015 $0.992% (30%)200,000 .. 500,0000.17%01:31 (00:30)
595 Power of Defense Aug 4, 2010 $9.99N/A (N/A)0 .. 20,0000%00:00 (00:00)
596 Robotex Nov 19, 2014 $0.992% (30%)100,000 .. 200,0000%00:00 (00:00)
597 Ku: Shroud of the Morrigan Mar 17, 2014 $4.99N/A (N/A)20,000 .. 50,0000%00:00 (00:00)
598 Ground Pounders Jul 15, 2014 $4.99N/A (N/A)0 .. 20,0000%00:00 (00:00)
599 Defenders of Time Nov 4, 2014 N/AN/A (N/A/55%)0 .. 20,0000%00:00 (00:00)
600 Tank Operations: European Campaign Nov 22, 2013 $19.992% (29%)20,000 .. 50,0000%00:00 (00:00)
601 Hard Truck Apocalypse: Arcade / Ex Machina: Arcade Mar 14, 2014 $4.992% (27%)20,000 .. 50,0000%00:00 (00:00)
602 Solar Shifter EX Sep 11, 2015 $4.99N/A (N/A)20,000 .. 50,0000%00:00 (00:00)
603 Gridberd Sep 7, 2015 $6.99N/A (N/A)200,000 .. 500,0000.16%02:21 (00:47)
604 One Star Apr 17, 2017 $0.51% (24%)100,000 .. 200,0006.25%03:56 (04:29)
605 Elite vs. Freedom May 31, 2016 $4.991% (23%)0 .. 20,0000%00:00 (00:00)
606 APOX Jan 20, 2011 $14.991% (23%/48%)20,000 .. 50,0000%00:00 (00:00)
607 The Asskickers-Steam Edition Feb 6, 2015 $9.99N/A (N/A)0 .. 20,0000%00:00 (00:00)
608 Gemini Wars Nov 2, 2012 $14.991% (20%/53%)20,000 .. 50,0000%00:00 (00:00)
609 Lords of the Black Sun Sep 12, 2014 $29.991% (20%)20,000 .. 50,0000%00:00 (00:00)
610 Star Project Aug 4, 2016 $0.49N/A (N/A)100,000 .. 200,0000%00:00 (00:00)
611 Human Extinction Simulator Jan 21, 2015 $19.99N/A (N/A)0 .. 20,0000%00:00 (00:00)
612 Prison Tycoon 3: Lockdown Jan 29, 2008 $9.991% (17%)20,000 .. 50,0000%00:00 (00:00)
613 Tryst Sep 14, 2012 $14.99N/A (N/A/50%)0 .. 20,0000%00:00 (00:00)
614 Once Bitten, Twice Dead! Jul 7, 2015 $4.99N/A (N/A)20,000 .. 50,0000%00:00 (00:00)
615 Citadels Jul 25, 2013 $14.991% (13%/20%)20,000 .. 50,0000%00:00 (00:00)
616 Bloodbath Jun 16, 2014 $14.99N/A (N/A)0 .. 20,0000%00:00 (00:00)
617 Magnetic By Nature Nov 10, 2014 $9.99N/A (N/A)20,000 .. 50,0000%00:00 (00:00)

Tags over time:

Access restricted.

This feature is only available to users with special access rights. Sorry.

If you want to proceed, you need to register or log in first and then back Steam Spy on Patreon. Look for Indie or Pro pledge.

Don't forget to use the same email as on Steam Spy!

Owners of this game also own:

Access restricted.

This feature is only available to users with special access rights. Sorry.

If you want to proceed, you need to register or log in first and then back Steam Spy on Patreon. Look for Indie or Pro pledge.

Don't forget to use the same email as on Steam Spy!

Playtime distribution:

Access restricted.

This feature is only available to users with special access rights. Sorry.

If you want to proceed, you need to register or log in first and then back Steam Spy on Patreon. Look for Indie or Pro pledge.

Don't forget to use the same email as on Steam Spy!

Playtime (2 weeks):

Access restricted.

This feature is only available to users with special access rights. Sorry.

If you want to proceed, you need to register or log in first and then back Steam Spy on Patreon. Look for Indie or Pro pledge.

Don't forget to use the same email as on Steam Spy!

User reviews:

Login required.

Please register or log in to see this information.